Preview of NWS' New Version of Forecast
This preview is not operational and should not be used for support decisions.

Regional Weather Roundup (RWR)

Issued by Gray - Portland, ME (GYX)

                            
000
ASUS41 KGYX 182105
RWRGYX
WEATHER ROUNDUP FOR MAINE AND NEW HAMPSHIRE
NATIONAL WEATHER SERVICE GRAY ME
500 PM EDT MON MAR 18 2019

MEZ002-005-006-010-012-015-018-020-021-024-026-027-029-182200-
MAINE
  
CITY           SKY/WX    TMP DP  RH WIND       PRES   REMARKS
PORTLAND       FAIR      38   5  25 W14       30.17R                  
SANFORD        FAIR      36   5  27 W17G23    30.18R                  
BAR HARBOR     FAIR      35   4  27 NW8       30.13R                  
WISCASSET      FAIR      37   4  25 VRB6      30.17R                  
ROCKLAND       FAIR      35   7  31 W17       30.14S                  
FRYEBURG       FAIR      34   3  27 NW13G22   30.15R                  
LEWISTONAUBURN FAIR      35   3  26 NW14      30.15S                  
AUGUSTA        FAIR      34   3  27 W12G17    30.14R                  
WATERVILLE     FAIR      34   3  27 W14       30.11R                  
BANGOR         FAIR      35   4  27 W7        30.11R                  
GREENVILLE       N/A     27  -3  27 W10G21    30.03R WCI  17          
MILLINOCKET    FAIR      31   3  30 NW14G20   30.10R                  
HOULTON        CLOUDY    29   8  41 NW9G21    30.04R                  
PRESQUE ISLE   FAIR      27   8  44 W14       30.06R WCI  16          
FRENCHVILLE    FAIR      22   4  46 NW14G22   30.02R WCI   9          
CARIBOU        PTSUNNY   24   7  48 NW9       30.04R                  
$$

NHZ002-005-008-009-011-012-014-182200-
NEW HAMPSHIRE
  
CITY           SKY/WX    TMP DP  RH WIND       PRES   REMARKS
PORTSMOUTH     MOSUNNY   39   3  21 W14       30.17R                  
ROCHESTER      FAIR      37   4  25 W9G18     30.17R                  
NASHUA         FAIR      40   4  22 NW18G24   30.20R                  
MANCHESTER     FAIR      40   2  20 NW13G18   30.18R                  
CONCORD        FAIR      37   7  28 W13       30.19R                  
LACONIA        FAIR      35   3  26 W8G17     30.17S                  
PLYMOUTH       FAIR      35   3  25 W8        30.18R                  
BERLIN         FAIR      31   2  29 W8G20     30.12S                  
WHITEFIELD     PTSUNNY   34   4  28 W10       30.14S                  
JAFFREY        FAIR      35   8  32 W12       30.17R                  
KEENE          FAIR      36   7  29 NW7       30.20R                  
LEBANON        FAIR      36   8  31 W12G18    30.17S                  
MT WASHINGTON  MOSUNNY    1  -4  78 W48G62      N/A  WCI -29          
$$

VTZ005-007-008-182200-
VERMONT
  
CITY           SKY/WX    TMP DP  RH WIND       PRES   REMARKS
ST JOHNSBURY     N/A     33   6  32 MISG      30.15S                  
MONTPELIER     FAIR      30  10  43 NW15G23   30.19R WCI  19          
BURLINGTON     PTSUNNY   35   6  29 NW7       30.20S                  
$$

MAZ007-012-024-CTZ003-RIZ002-NYZ038-NYZ072-182200-
SOUTHERN NEW ENGLAND AND NY
  
CITY           SKY/WX    TMP DP  RH WIND       PRES   REMARKS
BOSTON         FAIR      43   3  19 W12G23    30.20R                  
WORCESTER      FAIR      37   9  31 W14G20    30.17R                  
NANTUCKET      FAIR      39  19  44 SW16      30.23R                  
PROVIDENCE     FAIR      43   7  22 NW13      30.21S                  
HARTFORD       FAIR      44   7  21 W13       30.21S                  
ALBANY         FAIR      41   9  26 W15       30.25S                  
NEW YORK CITY  PTSUNNY   44  13  28 NW10      30.25R                  
$$

ANZ081-ANZ082-ANZ150-NHZ014-MEZ023>029-182200-
COASTAL MARINE OBSERVATIONS
  
STATION/POSITION TIME  TEMP    WIND        PRES    WAVE
                       AIR SEA DIR/SP/G            HT/PER
                 (UTC) (F)     (DEG/KT/KT) (MB)    (FT/S)
MOUNT DESERT ROC 2000   31     250/ 18/ 20 1020.8R
MATINICUS ROCK   2000   32     250/ 18/ 20 1020.6F
ISLE OF SHOALS   2000   36     290/ 18/ 20 1021.5F
CASHES LEDGE BUO 2050   35 39              1022.5R   3/ 5
$$

.............KEY..............
   WCI - WIND CHILL
   TC  - TEMPERATURE IN CELSIUS
   VSB - VISIBILITY IN MILES
   HX  - HEAT INDEX
   FAIR- INDICATES FEW OR NO CLOUDS BELOW 12,000 FT, WITH NO 
         SIGNIFICANT WEATHER AND/OR OBSTRUCTIONS TO VISIBILITY.